Tracking 17856 objects as of 28-September-2016
HD Live streaming from Space Station
objects crossing your sky now

UNAMSAT

Track UNAMSAT now!
10-day predictions
UNAMSAT is classified as:


NORAD ID: 24305
Int'l Code: 1996-052B
Perigee: 970.0 km
Apogee: 1,016.4 km
Inclination: 82.9 °
Period: 104.8 minutes
Semi major axis: 7364 km
RCS: 0.174 m2 (medium)
Launch date: September 5, 1996
Source: Mexico (MEX)
Launch site: PLESETSK MISSILE AND SPACE COMPLEX (PKMTR)
Your satellite tracking list
Your tracking list is empty





NASA's NSSDC Master Catalog

Two Line Element Set (TLE):
1 24305U 96052B   16272.11560826  .00000031  00000-0  16346-4 0  9991
2 24305  82.9398 186.4603 0031448  53.6612 306.7438 13.73772789  5860
Source of the keplerian elements: AFSPC

N2YO: 515